sat.trackr.live / text

‹ back to catalog

STARLINK-32776

NORAD 63032 · 2025-034D

PAYLOAD ACTIVE UNKNOWN

§ Identity

Operator
Country
US
Launch date
2025-02-18
Launch site
AFETR
Launch vehicle
Mass (kg)
RCS (m²)

Purposes: comms

External: N2YO · Heavens-Above · Gunter

§ Orbital elements

Epoch: 2026-09-21T19:14:55.177728Z

Period
93.85 min
Inclination
53.1593°
Eccentricity
0.0000867
Mean motion
15.34394617 rev/d
Perigee alt
462.1 km
Apogee alt
463.3 km
Semi-major
6,840.9 km
B*
5.7729e-4
RAAN
63.5746°
Arg perigee
87.9508°
Mean anomaly
272.1594°
Rev number
8,916

§ Raw data

STARLINK-327761 63032U 25034D   26264.80202752  .00019175  00000+0  57729-3 0  99992 63032  53.1593  63.5746 0000867  87.9508 272.1594 15.34394617 89168

JSON: /api/v1/satellites/63032 · /tle

For live sub-satellite position, see the globe view (requires WebGL).

§ Visibility from observer

Set your observer location to see the next 7 days of passes ≥ 10°. The values pass through the URL so the page stays shareable.

No JS? Fill the form by hand. The geolocation button needs JavaScript.